Temperature
18 19 19 19 19 17 17 16 16 17 16 17 16 15 16 16 16 16 16 16 16 16 16 16 15 15 15 15 14 14 14 14 13 13 13 12 12 12 12 12 12 11 11 11
19 19 19 19 19 18 17 17 17 17 17 17 17 17 16 15 16 16 16 16 16 16 16 16 15 15 15 14 14 14 13 13 13 13 12 12 12 12 11 11 11 11 11 11
17 18 19 19 19 18 18 17 17 17 18 16 15 15 16 16 16 17 17 17 17 16 16 16 15 15 15 14 14 13 13 13 13 12 12 12 12 11 11 11 11 11 10 10
16 18 19 18 18 18 18 18 17 17 17 16 17 17 18 18 18 18 18 17 17 17 16 16 15 15 14 14 13 13 13 13 12 12 12 11 11 11 11 11 10 10 10 10
14 16 17 18 18 18 18 18 17 16 16 16 16 16 16 18 18 19 18 18 17 17 16 16 15 15 14 14 13 13 13 12 12 12 11 11 11 11 10 10 10 10 10 9
14 17 17 18 19 19 19 19 18 17 16 15 15 14 16 19 19 18 18 17 17 16 16 15 15 14 14 13 13 13 12 12 12 11 11 11 10 10 10 10 10 9 9 9
14 15 16 16 17 18 19 18 19 18 17 16 16 18 19 19 19 18 18 17 17 16 16 15 15 14 14 13 13 13 12 12 11 11 11 10 10 10 10 9 9 9 9 9
13 15 16 17 17 17 18 19 19 19 19 18 19 19 19 19 19 18 18 17 16 16 15 15 14 14 13 13 13 12 12 11 11 10 10 10 10 10 9 9 9 9 9 9
14 15 16 17 18 19 19 19 20 20 20 19 19 19 19 18 18 18 17 17 16 15 15 14 14 13 13 13 12 12 11 11 11 10 10 10 10 9 9 9 8 8 8 8
12 13 15 17 18 19 19 20 20 20 20 19 19 18 18 18 18 17 17 16 16 15 15 14 14 13 13 12 12 11 11 11 10 10 10 9 9 9 9 8 8 8 8 7
13 13 15 18 18 19 19 19 19 19 19 19 18 18 18 18 17 17 16 16 15 15 14 14 13 13 12 12 11 11 11 10 10 10 10 9 9 9 8 8 8 7 7 7
14 15 14 17 18 18 18 18 19 19 18 18 18 18 17 17 17 16 16 15 15 14 14 14 13 13 12 12 11 11 11 10 10 10 9 9 9 8 8 8 8 7 7 7
17 17 17 17 17 17 17 17 18 18 18 17 17 17 17 16 16 16 15 15 15 14 14 13 13 12 12 11 11 11 10 10 10 9 9 9 8 8 8 8 8 7 7 7
16 16 16 16 16 16 16 16 16 17 17 16 16 16 16 15 15 15 15 14 14 14 13 13 12 12 12 11 11 11 10 10 10 9 9 8 8 8 8 7 7 7 7 7
15 15 15 16 16 16 16 16 15 15 15 15 15 15 15 15 15 14 14 14 13 13 13 12 12 12 11 11 11 10 10 10 9 9 9 8 8 8 7 7 7 7 6 6
14 14 14 15 15 15 15 14 14 14 14 14 14 14 14 14 14 14 13 13 13 12 12 12 12 11 11 10 10 10 10 9 9 9 8 8 8 7 7 7 6 6 6 6
12 12 13 13 13 14 14 14 14 14 14 14 14 13 13 13 13 13 13 12 12 12 11 11 11 11 10 10 10 9 9 9 8 8 8 8 7 7 7 6 6 6 6 6
13 13 13 13 13 13 13 13 13 13 13 13 13 13 13 12 12 12 12 12 11 11 11 11 10 10 10 9 9 9 9 8 8 8 8 7 7 7 6 6 6 6 6 5
12 12 12 12 12 12 12 12 12 12 12 12 12 12 12 12 12 11 11 11 11 11 11 10 10 9 9 9 9 8 8 8 8 7 7 7 6 6 6 6 6 5 5 5
12 12 12 12 12 12 12 12 12 12 12 11 11 11 11 11 11 10 10 10 10 10 10 10 9 9 9 8 8 8 8 7 7 7 7 6 6 6 6 6 5 5 5 5
11 11 11 11 11 11 11 11 11 11 11 11 10 10 10 10 10 10 9 9 9 9 9 9 9 8 8 8 7 7 7 7 7 6 6 6 6 5 5 5 5 5 4 4
10 10 10 10 10 10 10 10 10 10 10 10 9 9 9 9 9 9 9 9 9 8 8 8 8 8 7 7 7 7 7 6 6 6 6 5 5 5 5 4 4 4 4 4
9 9 9 9 9 9 9 9 9 9 9 9 9 9 9 8 8 8 8 8 8 8 7 7 7 7 7 6 6 6 6 6 6 5 5 5 5 4 4 4 4 4 4 3
9 9 9 9 9 9 9 8 8 8 8 8 8 8 8 8 8 8 7 7 7 7 7 7 6 6 6 6 6 6 5 5 5 5 5 4 4 4 4 3 3 3 3 3
8 8 8 8 8 8 8 8 8 7 7 7 7 7 7 7 7 7 7 7 6 6 6 6 6 6 5 5 5 5 5 4 4 4 4 4 4 3 3 3 3 3 3 2
7 7 7 7 7 7 7 7 7 7 7 7 7 6 6 6 6 6 6 6 6 6 5 5 5 5 5 5 5 4 4 4 4 4 3 3 3 3 3 2 2 2 2 2
7 6 6 6 6 6 6 6 6 6 6 6 6 6 6 6 6 5 5 5 5 5 5 5 4 4 4 4 4 4 3 3 3 3 3 3 2 2 2 2 2 2 1 1
Wind_Speed
6 5 4 5 7 8 8 9 9 9 9 11 10 11 10 10 10 10 10 9 9 8 7 6 5 4 4 3 2 2 2 2 0 1 1 2 2 3 3 4 4 4 4 5
2 2 3 5 7 9 9 7 8 6 9 9 5 6 8 11 13 13 12 11 10 9 8 8 7 6 5 4 3 3 3 1 0 1 2 2 2 3 3 4 4 4 5 5
3 4 2 6 8 9 7 8 9 10 11 5 6 11 14 14 15 14 14 12 12 11 10 9 8 7 6 5 3 3 3 2 1 0 1 1 2 2 3 3 3 4 5 5
1 2 5 9 4 6 7 7 9 8 7 8 9 8 7 10 14 14 13 12 12 10 9 7 6 6 5 5 4 4 3 2 1 1 0 1 2 2 3 2 3 4 5 5
4 3 7 9 4 5 6 6 7 8 6 4 5 4 2 8 12 13 12 11 10 10 9 7 7 7 6 5 4 3 3 3 2 2 1 1 2 3 2 2 3 4 4 5
5 4 6 8 4 2 4 5 5 7 7 8 9 4 6 7 10 9 9 8 8 8 7 7 7 7 7 6 5 5 5 4 3 2 2 2 3 3 2 2 3 4 5 5
6 6 8 8 3 4 4 8 4 7 9 12 10 7 4 7 8 9 9 9 9 9 8 8 7 8 7 6 6 6 4 3 3 3 3 3 2 2 2 2 3 4 6 6
6 5 9 4 5 7 8 3 3 5 8 9 7 3 4 7 8 9 9 8 9 9 8 6 7 8 7 7 6 5 4 3 3 3 3 2 2 2 2 2 3 4 5 7
8 8 5 3 6 4 2 2 3 4 5 8 5 4 5 5 7 8 9 9 8 8 8 6 7 8 8 7 6 5 4 4 4 3 3 2 2 3 3 2 3 4 4 6
4 7 6 5 4 3 2 3 2 3 5 7 6 5 6 6 7 7 7 8 7 8 8 7 6 7 7 6 6 6 5 5 4 4 3 3 3 3 3 3 4 4 5 6
5 6 5 5 4 2 1 0 1 2 3 5 6 5 6 7 7 7 7 7 8 9 9 8 7 7 6 6 6 6 5 5 4 4 4 4 4 4 5 5 6 6 5 5
7 7 5 5 4 1 1 1 2 3 2 2 5 6 6 6 6 7 7 7 7 7 7 7 7 7 6 6 7 7 5 5 4 4 4 4 4 5 7 8 11 11 10 9
5 3 3 3 2 1 2 2 2 3 4 3 3 5 6 5 5 6 6 7 8 8 7 6 6 6 6 6 6 7 7 6 4 4 4 4 4 4 6 7 8 9 11 11
3 1 1 2 2 1 1 2 2 2 2 3 3 3 4 4 4 6 7 8 7 6 6 6 6 7 6 6 6 6 6 7 6 5 5 5 5 5 5 5 6 6 8 11
2 3 4 2 0 1 2 3 4 2 2 1 2 3 4 5 6 7 6 5 5 5 5 5 6 7 5 5 6 6 6 5 5 5 5 5 5 5 5 6 6 6 7 8
2 1 1 2 2 2 2 3 3 2 1 1 2 3 4 5 4 3 3 5 6 6 6 6 7 7 5 5 6 5 5 9 7 5 4 5 5 5 5 6 6 6 7 7
2 1 0 0 1 1 2 2 3 3 2 2 3 3 2 2 2 2 3 4 5 6 6 6 7 6 5 5 5 5 5 6 9 6 5 5 5 6 6 6 6 7 8 9
4 4 4 4 4 3 2 1 1 2 3 3 2 2 3 4 5 5 4 3 2 3 5 6 6 5 5 5 5 5 5 5 5 5 6 6 6 6 6 7 7 8 8 9
1 1 2 2 2 2 2 2 2 2 2 1 2 3 3 4 5 4 3 3 3 5 6 6 7 5 5 7 6 4 5 5 5 6 6 8 8 6 7 7 8 8 8 8
2 1 0 0 0 1 1 1 1 1 1 1 1 1 1 3 3 3 3 4 6 6 5 5 5 5 6 7 7 5 6 6 6 6 6 6 7 7 8 8 8 8 8 8
2 1 1 1 1 1 1 1 1 1 1 1 2 3 3 3 3 3 3 4 6 5 5 6 4 5 5 6 7 5 5 6 6 6 6 6 7 7 8 8 8 8 9 9
1 1 1 1 1 1 2 1 1 1 1 1 2 2 2 3 3 3 4 6 6 6 4 4 4 7 7 8 4 5 6 6 6 6 6 6 7 7 8 8 9 9 9 9
1 1 1 1 1 2 2 2 2 2 2 3 3 4 4 4 3 3 5 5 5 7 5 5 8 11 11 6 4 5 6 7 7 7 7 7 7 8 8 9 9 9 9 9
2 2 2 2 1 0 2 4 3 3 3 4 4 4 4 3 4 4 5 7 8 8 5 7 11 12 11 5 5 6 6 7 7 7 7 8 8 8 8 9 9 9 9 10
2 2 2 2 2 3 4 4 3 4 4 4 5 5 4 4 5 6 5 6 8 8 6 8 12 12 7 5 6 6 6 7 8 7 7 7 8 8 8 9 9 9 9 9
3 3 3 4 4 4 3 3 3 4 4 4 5 5 4 4 5 5 5 5 7 8 6 5 6 8 5 6 6 7 7 8 9 8 7 8 8 9 9 9 11 9 9 9
3 3 3 3 4 3 3 3 4 5 4 5 6 5 5 4 4 5 5 5 5 5 5 5 5 5 6 6 6 7 7 7 7 7 8 8 8 8 9 10 9 9 9 9
Wind_Direction
233 232 202 213 206 185 191 195 197 225 226 241 222 206 194 179 169 168 175 180 181 181 182 179 177 175 169 170 167 143 120 106 55 323 345 357 358 353 352 355 353 344 344 339
286 247 224 237 232 205 212 208 215 235 252 244 203 164 172 177 177 182 188 188 185 182 180 183 184 181 176 180 179 154 148 167 191 32 19 3 351 352 357 352 347 350 348 338
268 309 6 266 233 204 207 204 187 214 235 196 178 190 192 187 186 191 191 188 186 186 187 188 188 181 180 183 168 158 163 169 163 103 20 342 345 0 349 340 345 346 341 340
175 39 246 246 249 202 209 229 213 224 226 195 200 196 192 186 188 193 190 187 188 186 185 184 180 174 167 160 161 163 168 180 196 183 298 333 349 335 322 318 326 326 327 328
141 215 275 292 265 182 187 253 219 214 218 174 131 101 242 203 193 195 190 186 185 182 176 170 171 169 156 158 163 167 184 199 210 200 216 281 305 301 298 305 313 313 312 318
143 180 241 254 258 191 136 274 240 190 183 154 133 157 239 202 186 183 173 168 165 160 155 163 172 160 157 169 174 194 203 206 209 207 212 237 259 275 281 285 293 308 315 312
170 209 257 255 255 131 165 242 227 181 175 165 180 201 203 163 171 169 162 160 157 157 165 176 170 162 169 179 199 206 196 193 206 217 224 230 244 260 272 291 310 316 313 310
158 192 250 243 153 180 218 243 188 178 175 178 189 167 144 156 160 158 157 157 159 163 171 171 167 166 177 199 207 191 182 191 211 225 239 237 234 273 281 289 305 310 312 313
190 212 250 235 223 247 204 216 215 180 179 169 168 173 164 160 162 164 165 165 164 166 167 173 178 177 188 207 194 179 182 201 218 226 238 233 232 256 279 280 284 294 300 302
240 266 267 268 271 275 225 223 224 184 168 162 169 172 166 165 166 168 170 169 165 162 171 187 195 197 201 199 185 178 192 209 217 221 239 249 250 245 249 261 270 282 289 292
248 273 301 301 269 261 281 90 106 113 153 165 160 172 175 175 177 177 175 173 171 177 186 198 198 206 208 195 179 186 200 211 220 225 231 244 252 248 246 247 244 255 265 267
228 230 208 253 271 245 185 207 180 138 119 143 162 174 172 179 183 177 177 173 177 185 193 200 199 209 212 199 186 187 203 217 222 228 235 239 255 280 266 258 273 271 268 268
234 244 210 255 280 212 192 204 180 160 162 169 169 165 165 173 177 172 173 178 189 196 198 197 198 212 216 203 191 194 207 217 222 225 231 239 243 254 281 294 287 282 281 285
240 193 266 254 248 243 172 149 121 107 124 151 160 157 157 159 161 174 191 198 194 187 189 191 198 219 221 200 193 204 214 227 227 224 229 234 239 244 249 264 287 293 291 292
278 226 220 239 111 88 101 100 96 85 83 87 138 160 166 171 189 205 208 191 172 178 192 193 206 228 221 197 199 212 218 225 226 225 229 235 240 245 250 255 262 275 288 295
320 32 132 137 148 127 108 118 133 168 176 173 181 196 199 197 203 206 193 171 171 197 208 206 220 231 215 201 206 216 227 242 239 231 232 237 240 244 253 257 264 269 273 277
94 44 134 170 200 197 191 192 187 194 194 200 214 210 184 167 173 202 212 203 201 210 211 212 224 226 211 206 207 217 226 245 253 248 235 238 242 246 251 254 260 265 267 268
215 216 208 202 204 209 226 224 200 199 214 225 206 162 167 183 206 222 224 210 205 233 236 228 225 222 218 218 217 221 224 232 236 239 242 244 248 247 249 253 258 265 272 276
269 229 228 214 205 200 207 215 229 230 236 202 181 196 208 215 219 221 204 187 210 239 250 240 240 233 230 233 234 224 227 236 242 247 247 252 256 252 251 253 257 260 265 269
6 10 9 331 65 149 230 248 233 241 245 182 175 208 248 255 241 220 203 218 230 235 241 243 238 235 237 241 247 229 229 236 243 249 251 251 252 256 256 256 257 260 263 264
345 349 10 7 345 323 268 242 209 265 288 222 196 222 241 257 247 217 211 249 261 251 248 252 242 238 239 245 250 232 233 239 244 249 252 254 257 259 260 261 262 263 264 265
327 319 306 317 338 318 307 290 255 264 287 279 265 255 258 270 264 252 239 241 256 262 257 250 246 250 255 258 238 234 238 242 245 247 249 252 256 259 262 263 263 265 265 264
294 285 282 274 255 271 307 298 267 249 252 254 254 252 250 253 248 244 270 266 260 266 264 253 259 265 268 257 240 240 244 247 249 249 250 253 257 260 263 265 264 265 266 266
299 290 282 281 289 326 295 290 284 272 260 260 257 253 250 262 275 259 253 274 279 278 266 265 272 275 275 253 245 246 248 251 253 253 254 255 257 260 262 264 265 267 266 267
283 288 299 296 283 271 267 276 288 288 282 278 275 267 254 238 247 265 267 268 274 278 268 273 279 283 277 258 253 253 254 255 259 261 255 259 262 263 264 264 264 267 268 268
277 270 267 262 262 268 269 266 267 270 268 274 279 275 271 266 260 265 269 268 269 278 274 269 274 277 267 262 261 260 258 266 273 270 263 265 265 266 268 267 267 268 269 270
273 274 281 289 285 269 261 256 257 266 263 259 272 277 276 277 276 276 276 277 278 276 273 271 270 266 265 265 266 267 266 267 267 267 267 267 268 268 268 268 270 272 273 273
Height
1514 1511 1512 1512 1513 1518 1521 1523 1529 1523 1521 1510 1507 1507 1509 1512 1516 1520 1523 1527 1529 1532 1535 1537 1539 1541 1542 1543 1543 1543 1543 1543 1543 1542 1541 1540 1539 1537 1535 1534 1532 1529 1527 1525
1512 1509 1510 1511 1509 1511 1513 1514 1516 1514 1512 1501 1502 1505 1507 1510 1513 1516 1519 1522 1526 1529 1532 1534 1536 1538 1539 1540 1541 1541 1541 1541 1541 1540 1539 1538 1536 1535 1533 1531 1529 1527 1525 1522
1521 1514 1510 1515 1504 1504 1505 1504 1507 1510 1502 1498 1501 1501 1502 1505 1508 1511 1514 1518 1522 1525 1529 1531 1534 1535 1537 1538 1538 1539 1539 1538 1538 1537 1536 1535 1534 1533 1531 1529 1527 1524 1522 1520
1523 1517 1523 1507 1494 1494 1497 1496 1496 1495 1493 1494 1494 1496 1499 1501 1504 1507 1511 1515 1519 1522 1526 1529 1531 1533 1534 1535 1536 1536 1536 1536 1535 1535 1534 1533 1531 1530 1528 1526 1524 1522 1519 1517
1527 1525 1518 1503 1492 1493 1496 1495 1489 1490 1490 1492 1494 1497 1498 1499 1501 1504 1507 1511 1515 1519 1522 1526 1528 1530 1531 1532 1533 1533 1533 1533 1533 1532 1531 1530 1528 1527 1525 1523 1521 1519 1517 1514
1526 1522 1522 1502 1489 1488 1492 1495 1485 1485 1487 1490 1493 1500 1496 1495 1498 1502 1506 1509 1513 1517 1520 1523 1525 1527 1528 1529 1529 1530 1530 1530 1530 1529 1528 1527 1526 1524 1523 1521 1519 1516 1514 1512
1521 1520 1511 1492 1487 1489 1501 1494 1482 1482 1483 1486 1488 1490 1490 1493 1496 1499 1503 1507 1510 1513 1516 1519 1521 1523 1524 1525 1526 1527 1527 1527 1526 1526 1525 1524 1523 1521 1519 1517 1515 1513 1511 1508
1518 1519 1510 1486 1486 1489 1486 1480 1479 1480 1481 1484 1485 1487 1489 1491 1494 1497 1500 1503 1507 1510 1512 1515 1518 1519 1520 1521 1523 1523 1523 1523 1523 1523 1522 1521 1519 1518 1516 1514 1512 1509 1507 1504
1501 1497 1486 1483 1482 1481 1480 1480 1479 1479 1481 1483 1484 1486 1488 1490 1493 1495 1498 1501 1503 1506 1509 1512 1514 1515 1517 1518 1519 1519 1520 1520 1519 1519 1518 1517 1516 1514 1512 1510 1508 1505 1503 1500
1494 1486 1481 1480 1479 1479 1479 1479 1479 1479 1480 1481 1483 1485 1487 1489 1491 1493 1495 1498 1500 1503 1506 1508 1510 1512 1513 1515 1515 1516 1516 1516 1515 1515 1514 1513 1512 1510 1508 1506 1504 1501 1499 1496
1489 1483 1479 1477 1477 1478 1478 1478 1478 1478 1479 1480 1482 1483 1485 1486 1488 1490 1493 1495 1498 1500 1502 1504 1506 1508 1509 1511 1511 1511 1512 1512 1511 1511 1510 1509 1507 1506 1504 1502 1501 1498 1495 1492
1484 1478 1478 1476 1476 1476 1476 1476 1477 1477 1478 1479 1480 1481 1483 1484 1486 1488 1490 1492 1494 1496 1498 1501 1502 1504 1505 1506 1507 1507 1507 1507 1507 1506 1505 1504 1502 1501 1499 1498 1496 1493 1491 1488
1475 1474 1474 1474 1474 1474 1474 1475 1475 1476 1476 1477 1478 1480 1481 1482 1484 1485 1487 1489 1491 1493 1495 1496 1498 1499 1501 1502 1502 1502 1502 1502 1501 1501 1500 1499 1497 1495 1493 1492 1490 1488 1486 1483
1472 1472 1471 1471 1472 1472 1472 1473 1473 1474 1474 1475 1476 1477 1478 1479 1481 1482 1484 1485 1487 1489 1491 1492 1493 1495 1496 1497 1497 1497 1497 1496 1496 1495 1494 1493 1492 1490 1488 1485 1483 1481 1480 1477
1469 1469 1470 1470 1470 1470 1470 1470 1471 1472 1472 1473 1474 1475 1476 1476 1478 1479 1481 1482 1484 1485 1487 1488 1489 1490 1491 1491 1491 1491 1491 1490 1490 1489 1488 1487 1486 1484 1482 1480 1477 1475 1472 1471
1467 1467 1467 1467 1467 1467 1468 1468 1469 1469 1470 1471 1471 1472 1473 1474 1475 1476 1477 1479 1480 1481 1482 1483 1484 1485 1486 1486 1486 1485 1485 1485 1484 1483 1482 1481 1479 1478 1476 1473 1471 1468 1466 1464
1465 1465 1465 1465 1465 1465 1466 1467 1467 1468 1468 1469 1469 1470 1471 1471 1472 1473 1474 1475 1476 1477 1478 1479 1479 1480 1480 1480 1480 1479 1479 1478 1478 1476 1475 1474 1473 1471 1469 1467 1464 1462 1459 1457
1464 1464 1464 1464 1464 1464 1464 1465 1465 1466 1466 1466 1467 1467 1468 1468 1469 1469 1470 1471 1472 1473 1474 1474 1474 1475 1474 1474 1474 1473 1472 1471 1470 1469 1468 1467 1465 1464 1462 1460 1457 1455 1452 1450
1461 1462 1462 1462 1463 1463 1463 1463 1463 1464 1464 1464 1464 1464 1465 1465 1466 1466 1467 1467 1467 1468 1468 1469 1469 1469 1468 1468 1467 1467 1466 1464 1463 1462 1460 1459 1458 1456 1454 1452 1450 1447 1445 1442
1459 1460 1460 1460 1461 1461 1461 1461 1461 1461 1461 1462 1462 1462 1462 1462 1463 1463 1463 1463 1463 1463 1463 1463 1463 1463 1462 1462 1461 1460 1458 1457 1456 1454 1453 1451 1450 1448 1446 1444 1442 1439 1436 1434
1457 1457 1458 1458 1459 1459 1459 1459 1459 1459 1459 1459 1459 1459 1459 1459 1459 1459 1458 1458 1458 1459 1458 1458 1457 1456 1455 1455 1454 1452 1451 1450 1448 1447 1445 1443 1442 1440 1438 1435 1433 1431 1428 1425
1456 1456 1456 1456 1456 1457 1457 1457 1457 1457 1457 1456 1456 1456 1456 1456 1455 1455 1455 1454 1454 1453 1453 1452 1451 1450 1449 1448 1446 1445 1443 1442 1440 1439 1437 1435 1433 1431 1429 1427 1424 1422 1419 1417
1454 1454 1454 1454 1454 1454 1454 1454 1454 1454 1454 1454 1453 1453 1452 1452 1451 1451 1450 1449 1449 1448 1447 1446 1445 1443 1442 1441 1439 1438 1436 1434 1433 1431 1429 1427 1425 1423 1420 1418 1416 1413 1411 1408
1452 1452 1452 1452 1452 1451 1451 1451 1451 1451 1450 1450 1450 1449 1449 1448 1447 1446 1445 1444 1443 1442 1440 1439 1438 1437 1436 1434 1432 1430 1428 1426 1425 1423 1421 1418 1416 1414 1412 1410 1407 1404 1402 1399
1450 1450 1450 1449 1449 1448 1448 1447 1447 1446 1446 1445 1445 1444 1444 1443 1442 1440 1439 1438 1437 1435 1434 1432 1431 1430 1428 1426 1424 1423 1421 1419 1417 1414 1412 1410 1407 1405 1403 1400 1398 1395 1392 1389
1447 1447 1446 1446 1446 1445 1444 1444 1443 1442 1442 1441 1440 1439 1438 1437 1436 1435 1433 1432 1430 1429 1427 1425 1424 1422 1420 1418 1417 1415 1413 1410 1408 1406 1404 1401 1399 1396 1393 1391 1388 1386 1383 1380
1443 1443 1443 1442 1442 1441 1441 1440 1439 1438 1437 1436 1435 1434 1433 1432 1430 1428 1427 1425 1424 1422 1420 1418 1416 1415 1413 1410 1408 1406 1404 1402 1400 1398 1395 1392 1390 1387 1384 1382 1379 1376 1374 1371